Weather in Puerto Cabello

Venezuela     10°28′17″N   68°01′09″W
В апреле 2022 года жителям России запретили посещать сайт meteo.paraplan.net по решению Генеральной прокуратуры. Аудитория сайта уменьшилась в 10 раз. Владельцы сайта не видят смысла в поддержке погодного сервера в таких условиях. Сайт будет закрыт в октябре.
temp.,
°C
wind,
m/s
gust,
m/s
humid.,
%
clouds,
%
prec.,
mm/h
press.,
hPa
HPBL,
m
3 october, mon
mon323:00+28se33692 0.0 1014199
02:00+27ssw22695 0.1 1012175
05:00+27s226923 0.1 1012153
08:00+27sse12655 0.1 1013225
11:00+28nne43715 0.0 1013206
14:00+27ne76775 0.0 1010426
17:00+28ene777882 0.4 1009491
20:00+28e567797 1.6 1010291
4 october, tue
tue423:00+28se23735 0.8 1011198
02:00+27sw33735 1.1 1010234
05:00+27sw22716 0.4 1010290
08:00+27se116811 0.4 1012315
11:00+26n32835 0.1 1012188
14:00+26ene338462 0.5 1009291
17:00+27ene448317 0.1 1008344
20:00+27ene4579100 0.3 1010522
5 october, wed
wed523:00+28e5579100 0.2 1011639
02:00+27e347899 0.8 1009642
05:00+27ese1277100 0.8 1008583
08:00+27wsw1178100 1.3 1010511
11:00+27n2280100 0.1 1011343
14:00+27ene348098 1.6 1009339
17:00+27ne4478100 0.5 1008438
20:00+28ene5677100 0.9 1009707
6 october, thu
thu623:00+28e4579100 1.0 1010629
02:00+27e4580100 2.9 1009584
05:00+27e3579100 2.8 1009601
08:00+26e348098 6.3 1011465
11:00+27ene348196 1.7 1011389
14:00+28ne557991 4.8 1009592
17:00+27e3478100 1.3 1008519
20:00+27ene2376100 2.1 1010579
7 october, fri
fri723:00+27ene237881 0.9 1011545
02:00+26wsw118159 1.3 1010338
05:00+26wnw2286100 0.6 1010409
08:00+26w2282100 0.9 1011325
11:00+27nnw328073 0.6 1012267
14:00+29nnw216982 1.7 1009156
17:00+28s7872100 2.4 1008449
20:00+27w1174100 3.8 1010232